STARLINK-34838, 65343

Orbit data source: Space-Track

STARLINK-34838, 65343 is a payload satellite owned by SpaceX/Seattle (US) in LEO that was launched on Wed, 27 Aug 2025 UTC via an FALCON 9 launch vehicle from the Air Force Eastern Test Range (AFETR). Payload-class satellites include a variety of spacecraft equipped with specific instruments for various scientific and technological missions. These include communications satellites like Starlink; space stations such as the ISS; scientific satellites like the Hubble; Earth observation satellites from companies like Planet Labs, Umbra, and HawkEye 360; GPS; miniature CubeSats for education and research; and military/defense satellites.

Loading next visibility...
Identifier
65343, 2025-189W
Orbit
LEO
Country
Flag of USUS
Related business
Manufacturer
SpaceX/Seattle
Mission
Operational Commercial Communications
Bus & Motor
STARLINK V2MO, Unknown motor
Mass
575 kg wet, ~530 kg dry
Launch date (UTC)
2025-08-27 (10 months ago)
Launch vehicle
FALCON 9
Launch site
Air Force Eastern Test Range (AFETR)
Object type
Payload
Rocket body
Debris
Shape & HBR
Box + 2 Pan, 17.7 m
Radar Cross Section
36.964 m², Large (>1 m²)

Expand to show TLE details & history
Last TLE update: 2 days ago

TLE from 2 days ago
0 STARLINK-34838
1 65343U 25189W   26170.06975802  .00017961  00000-0  61708-3 0  9998
2 65343  53.1594  96.1838 0001279  87.9686 272.1461 15.30200369 46639
Epoch: 2026-06-19T01:40Z
TLE epoch observation values (Epoch: 2026-06-19T01:40:27.092Z)
Latitude
-0.00006°
Longitude
163.76685°
Altitude
476.081 km
Speed
7.629 km/s
True Right ascension
06h 24m 44s
True Declination
0° 00' 00"
Sunlit
Object was in daylight at epoch
Visualization orbit readout
Latitude
Unknown
Longitude
Unknown
Altitude
Unknown
Speed
Unknown
Apparent Right ascension
Unknown
Apparent Declination
Unknown
Sunlit
N/A
Visualization observer readout
Local Sidereal Time
07:14:55
Azimuth
Unknown
Elevation
Unknown
Doppler factor
Unknown
Orbital elements
Apogee altitude
476.347 km
Perigee altitude
474.594 km
Semi-major axis
6,853.607 km
Eccentricity
0.00013
Inclination
53.1594°
RAAN
96.1838°
Arg. of periapsis
87.9686°
True anomaly
272.13145°
Mean anomaly
272.1461°
Eccentric anomaly
272.13878°
Mean motion
3.82529 °/min
Orbital period
94.11 mins
BSTAR
0.00061708
Loading maneuver chart data...
Computing Atmospheric mass density...
Loading historical data...
Loading historical data...
Loading historical data...
Loading historical data...
Loading historical data...
Loading historical data...
Loading historical data...

Documentation

Showing up to 5 results
|